Flag for Portugal Weather past 2 weeks in Setúbal, Portugal

Now
50 °F

Clear.


Feels Like: 45 °F
Forecast: N/A
Wind: 13 mph from Northwest

Location: Lisbon Portela Airport

Current Time: Jan 27, 2015 at 9:23:28 PM

Latest Report: Jan 27, 2015 at 8:30 PM


Visibility: 10 mi

Pressure: 30.36 "Hg

Humidity: 88%

Dew point: 46 °F

Location of SetúbalLocation

Historic Weather in Setúbal — Graph

°F

Setúbal temperature yesterday

Maximum temperature yesterday: 61 °F (at 1:30 PM)
Minimum temperature yesterday: 48 °F (at 4:30 AM)
Average temperature yesterday: 52 °F

Past Weeks' High & Low Weather Summary

 TemperatureHumidityPressure
High63 °F (Jan 25, 12:30 PM)100% (Jan 13, 1:30 AM)30.45 "Hg (Jan 13, 1:30 AM)
Low39 °F (Jan 25, 5:00 AM)45% (Jan 27, 3:00 PM)29.80 "Hg (Jan 18, 3:30 AM)
Average51 °F83%30.19 "Hg
* Reported Jan 12 8:00 PM — Jan 27 8:00 PM, Setúbal, Weather by CustomWeather, © 2014

Note: Actual official high and low records may vary slightly from our data, if they occured in-between our weather recording intervals... More about our weather records

Advertising

Setúbal weather history for previous 24 hours

 ConditionsComfort  
Time TempWeatherWind HumidityBarometerVisibility
8:00 PM
Jan 27
52 °FClear.15 mph82%30.39 "Hg10 mi
7:30 PM52 °FClear.13 mph82%30.36 "Hg10 mi
7:00 PM52 °FPassing clouds.13 mph82%30.36 "HgN/A
6:30 PM54 °FPassing clouds.13 mph77%30.36 "HgN/A
6:00 PM54 °FPassing clouds.14 mph77%30.36 "HgN/A
5:30 PM55 °FSunny.13 mph72%30.36 "Hg10 mi
5:00 PM57 °FSunny.16 mph67%30.36 "Hg10 mi
4:30 PM59 °FSunny.13 mph59%30.36 "Hg10 mi
4:00 PM61 °FPassing clouds.9 mph48%30.36 "HgN/A
3:30 PM63 °FSunny.12 mph49%30.36 "Hg10 mi
3:00 PM63 °FSunny.9 mph45%30.36 "Hg10 mi
2:30 PM63 °FPassing clouds.8 mph52%30.36 "HgN/A
2:00 PM63 °FPassing clouds.6 mph52%30.39 "HgN/A
1:30 PM63 °FPassing clouds.6 mph56%30.39 "HgN/A
1:00 PM61 °FSunny.9 mph55%30.42 "Hg10 mi
12:30 PM59 °FSunny.8 mph63%30.42 "Hg10 mi
12:00 PM57 °FPassing clouds.9 mph72%30.42 "HgN/A
11:30 AM55 °FSunny.10 mph77%30.45 "Hg10 mi
11:00 AM55 °FPassing clouds.14 mph77%30.45 "HgN/A
10:30 AM54 °FPassing clouds.14 mph82%30.42 "HgN/A
10:00 AM54 °FPassing clouds.12 mph82%30.42 "HgN/A
9:30 AM52 °FPassing clouds.7 mph88%30.42 "HgN/A
9:00 AM50 °FPassing clouds.12 mph94%30.42 "HgN/A
8:30 AM50 °FPassing clouds.6 mph88%30.42 "HgN/A
8:00 AM48 °FPassing clouds.3 mph94%30.42 "HgN/A
7:30 AM48 °FClear.2 mph94%30.42 "Hg10 mi
7:00 AM48 °FClear.2 mph94%30.42 "Hg10 mi
6:30 AM50 °FPassing clouds.6 mph88%30.39 "HgN/A
6:00 AM50 °FPassing clouds.7 mph88%30.39 "HgN/A
5:30 AM50 °FClear.9 mph88%30.39 "Hg10 mi
5:00 AM50 °FClear.10 mph88%30.39 "Hg10 mi
4:00 AM50 °FPassing clouds.8 mph88%30.39 "HgN/A
3:30 AM50 °FPassing clouds.8 mph88%30.39 "HgN/A
3:00 AM50 °FPassing clouds.9 mph88%30.39 "HgN/A
2:30 AM50 °FPassing clouds.9 mph88%30.42 "HgN/A
2:00 AM50 °FPassing clouds.9 mph88%30.42 "HgN/A
1:30 AM50 °FClear.12 mph88%30.42 "Hg10 mi
1:00 AM50 °FClear.12 mph88%30.42 "Hg10 mi
12:30 AM50 °FClear.14 mph88%30.42 "Hg10 mi
12:00 AM50 °FClear.12 mph88%30.42 "Hg10 mi
11:30 PM
Jan 26
50 °FClear.12 mph88%30.42 "Hg10 mi
11:00 PM50 °FClear.12 mph88%30.45 "Hg10 mi
10:30 PM50 °FClear.10 mph88%30.42 "Hg10 mi
10:00 PM50 °FPassing clouds.15 mph88%30.42 "HgN/A
9:30 PM50 °FPassing clouds.14 mph88%30.42 "HgN/A
9:00 PM52 °FPassing clouds.12 mph77%30.42 "HgN/A
Weather by CustomWeather, © 2014

See weather overviewHow to use our weather pages